Location: Andiroba
(19.8650°S, 43.9258°W)
Time: 03:56:08
(UTC+00:00)

Cosmos 1725 Rocket - Pass Details

Date: 21 September 2024
Orbit: 962 x 989 km, 82.9° (Epoch: 08 October)

Event Time Altitude Azimuth Distance (km) Brightness Sun altitude
Rises 08:10:08 0° 355° (N) 3,677 6.9 -9.2°
Reaches altitude 10° 08:12:38 10° 355° (N) 2,737 6.3 -8.6°
Maximum altitude 08:18:56 85° 267° (W) 1,001 4.1 -7.1°
Drops below altitude 10° 08:25:18 10° 177° (S) 2,764 6.4 -5.6°
Sets 08:27:51 0° 176° (S) 3,717 7.1 -5.0°
